User: anonymous   Login
Location: Caltech
(34.1382°N, 118.1253°W)
Time: 13:38:22
(UTC-07:00)
Language:

ADEOS II - Orbit

View from above orbital plane
View from above orbital plane
View from above satellite
View from above satellite

Ground track
Ground track

The orbit data is extracted from the following two-line orbital elements,

1 27597U 02056A   14297.68668851  .00000461  00000-0  20678-3 0  4367
2 27597 098.2781 298.6476 0000385 065.0267 064.7186 14.26890461617569
Epoch (UTC): 24 October 2014 16:28:49
Eccentricity: 0.0000385
inclination: 98.2781°
perigee height: 802 km
apogee height: 802 km
right ascension of ascending node: 298.6476°
argument of perigee: 65.0267°
revolutions per day: 14.26890461
mean anomaly at epoch: 64.7186°
orbit number at epoch: 61756

The dashed part of the orbit path shows where the satellite is in the earth's shadow,  

DLR